{"data":{"norad_id":63460,"epoch":"2026-05-25T03:06:19.842912Z","epoch_age_seconds":67438,"freshness":"FRESH","line1":"1 63460U 25070A   26145.12939633  .00020850  00000+0  76488-3 0  9997","line2":"2 63460  42.9985 188.4239 0001522 274.0858  85.9819 15.27587720 64663","mean_motion":15.2758772,"eccentricity":0.0001522,"inclination_deg":42.9985,"raan_deg":188.4239,"arg_perigee_deg":274.0858,"mean_anomaly_deg":85.9819,"bstar":0.00076488,"rev_number":6466,"period_min":94.266272315936,"perigee_km":481.98171067424,"apogee_km":484.07024868526,"semimajor_km":6861.1629796798,"source":"CELESTRAK","updated_at":"2026-05-25T13:38:20.004011Z"}}